EW3204 Weather Reports


time (UTC)temp
F
wind
direction
speed
knots
gust
knots
rain 1hr
in
rain 24hr
in
rain mn
in
humidity
%
barometer
mb
20260504213019 71 306 14.8 0.0 0.00 0.00 0.00 31 1009.7
20260504211506 71 298 13.0 0.0 0.00 0.00 0.00 31 1009.8
20260504210005 71 301 14.8 0.0 0.00 0.00 0.00 32 1009.9
20260504204512 71 275 14.8 0.0 0.00 0.00 0.00 33 1009.9
20260504203004 71 275 12.2 0.0 0.00 0.00 0.00 32 1010.0
20260504201502 71 271 13.0 0.0 0.00 0.00 0.00 33 1009.9
20260504200002 70 297 11.3 0.0 0.00 0.00 0.00 33 1010.1
20260504194602 70 289 12.2 0.0 0.00 0.00 0.00 33 1010.3
20260504193058 70 279 10.4 0.0 0.00 0.00 0.00 33 1010.2
20260504191600 69 299 11.3 0.0 0.00 0.00 0.00 33 1010.4
20260504190053 69 310 12.2 0.0 0.00 0.00 0.00 34 1010.6
20260504184551 68 290 10.4 0.0 0.00 0.00 0.00 35 1010.9
20260504183051 68 288 9.6 0.0 0.00 0.00 0.00 36 1011.1
20260504181549 67 279 9.6 0.0 0.00 0.00 0.00 37 1011.4
20260504180046 66 307 9.6 0.0 0.00 0.00 0.00 37 1011.4
20260504174544 65 275 10.4 0.0 0.00 0.00 0.00 39 1011.4
20260504173042 65 309 9.6 0.0 0.00 0.00 0.00 40 1011.3
20260504171546 65 301 9.6 0.0 0.00 0.00 0.00 37 1011.1
20260504090105 61 288 13.0 0.0 0.00 0.00 0.00 49 1008.7
20260504081556 62 271 10.4 0.0 0.00 0.00 0.00 48 1009.5
20260504044534 65 287 3.5 0.0 0.00 0.00 0.00 41 1006.7
20260504043024 65 302 6.1 0.0 0.00 0.00 0.00 41 1006.5
20260504041520 66 289 7.0 0.0 0.00 0.00 0.00 42 1006.3
20260504040018 67 232 7.8 0.0 0.00 0.00 0.00 36 1006.2
20260504034517 67 190 10.4 0.0 0.00 0.00 0.00 36 1006.1
20260504033017 67 217 14.8 0.0 0.00 0.00 0.00 37 1005.8
20260504031516 68 235 14.8 0.0 0.00 0.00 0.00 35 1005.7
20260504030018 67 265 10.4 0.0 0.00 0.00 0.00 38 1005.3
20260504024511 69 230 9.6 0.0 0.00 0.00 0.00 35 1005.6
20260504023010 69 293 7.8 0.0 0.00 0.00 0.00 39 1005.7
20260504021511 71 269 17.4 0.0 0.00 0.00 0.00 33 1005.0
20260504020013 73 250 13.9 0.0 0.00 0.00 0.00 33 1004.8
20260504014505 74 304 12.2 0.0 0.00 0.00 0.00 31 1004.6
20260504013009 76 241 7.8 0.0 0.00 0.00 0.00 26 1004.6
20260504011502 77 242 10.4 0.0 0.00 0.00 0.00 26 1004.4
20260504010002 78 342 7.0 0.0 0.00 0.00 0.00 26 1004.1
20260504004502 79 242 4.3 0.0 0.00 0.00 0.00 24 1004.3
20260504003000 79 267 9.6 0.0 0.00 0.00 0.00 22 1003.9
20260504001608 81 244 7.8 0.0 0.00 0.00 0.00 21 1003.7
20260504001502 81 240 7.8 0.0 0.00 0.00 0.00 21 1003.6
20260504000100 82 242 9.6 0.0 0.00 0.00 0.00 20 1003.6
20260503234600 82 217 13.0 0.0 0.00 0.00 0.00 21 1003.1
20260503233102 82 196 14.8 0.0 0.00 0.00 0.00 23 1003.1
20260503231559 82 208 19.1 0.0 0.00 0.00 0.00 22 1002.8
20260503224557 85 209 13.9 0.0 0.00 0.00 0.00 20 1002.7
20260503223056 85 234 11.3 0.0 0.00 0.00 0.00 20 1002.9
20260503221555 86 139 7.0 0.0 0.00 0.00 0.00 20 1003.1
20260503220053 86 177 9.6 0.0 0.00 0.00 0.00 18 1003.3
20260503214600 86 192 12.2 0.0 0.00 0.00 0.00 18 1003.6